Bedminster, NJ

11:35 AM EST on December 06, 2016 (GMT -0500)
Somerset

Weather History for KSMQ - January, 2014

Change the Weather History Date:

Thursday, January 16, 2014

  Actual Average Record
Temperature  
Mean Temperature 33 °F -  
Max Temperature 39 °F 35 °F 67 °F (1932)
Min Temperature 27 °F 16 °F -2 °F (1964)
Degree Days  
Heating Degree Days 32    
Moisture  
Dew Point 30 °F    
Average Humidity 85    
Maximum Humidity 93    
Minimum Humidity 76    
Precipitation  
Precipitation 0.00 in - - ()
Sea Level Pressure  
Sea Level Pressure 29.91 in    
Wind  
Wind Speed 3 mph (NW)    
Max Wind Speed 8 mph    
Max Gust Speed -    
Visibility 8 miles    
Events      
Averages and records for this station are not official NWS values.
T = Trace of Precipitation, MM = Missing Value Source: NWS Daily Summary

Daily Weather History Graph

Daily Weather History Graph

Search for Another Location

Airport or City:

Trip Planner

Search our weather history database for the weather conditions in past years. The results will help you decide how hot, cold, wet, or windy it might be!

Date:

Astronomy

Jan. 16, 2014 Rise Set
Actual Time 7:19 AM EST 4:57 PM EST
Civil Twilight 6:49 AM EST 5:27 PM EST
Nautical Twilight 6:16 AM EST 6:01 PM EST
Astronomical Twilight 5:43 AM EST 6:33 PM EST
Moon 5:47 PM EST (1/16) 7:11 AM EST (1/16)
Length of Visible Light 10h 37m
Length of Day
9h 37m
Full, 100% of the Moon is Illuminated
Jan 16
Full
Jan 24
Last Quarter
Jan 30
New
Feb 6
First Quarter
Feb 14
Full

Hourly Weather History & Observations

Time (EST) Temp. Windchill Dew Point Humidity Pressure Visibility Wind Dir Wind Speed Gust Speed Precip Events Conditions
12:53 AM 39.0 °F 36.8 °F 33.1 °F 79% 29.89 in 10.0 mi Variable 3.5 mph - N/A   Overcast
1:53 AM 37.9 °F 32.1 °F 30.9 °F 76% 29.91 in 10.0 mi NW 8.1 mph - N/A   Overcast
2:53 AM 37.9 °F 34.4 °F 30.9 °F 76% 29.90 in 10.0 mi NNW 4.6 mph - N/A   Overcast
3:53 AM 36.0 °F - 32.0 °F 86% 29.89 in 10.0 mi Calm Calm - N/A   Overcast
4:53 AM 36.0 °F - 32.0 °F 86% 29.89 in 10.0 mi Calm Calm - N/A   Overcast
5:53 AM 36.0 °F 31.1 °F 30.9 °F 82% 29.89 in 10.0 mi WNW 5.8 mph - N/A   Overcast
6:53 AM 35.1 °F 32.2 °F 32.0 °F 89% 29.89 in 9.0 mi WNW 3.5 mph - N/A   Overcast
7:53 AM 35.1 °F - 32.0 °F 89% 29.89 in 7.0 mi Calm Calm - N/A   Overcast
8:53 AM 35.1 °F 31.0 °F 32.0 °F 89% 29.92 in 7.0 mi West 4.6 mph - N/A   Overcast
9:53 AM 36.0 °F 31.1 °F 30.9 °F 82% 29.93 in 7.0 mi Variable 5.8 mph - 0.00 in   Overcast
10:16 AM 36.0 °F 33.3 °F 30.9 °F 82% 29.94 in 9.0 mi Variable 3.5 mph - N/A   Overcast
10:26 AM 36.0 °F 31.1 °F 30.9 °F 82% 29.93 in 9.0 mi WNW 5.8 mph - N/A   Overcast
10:53 AM 37.0 °F 32.4 °F 30.9 °F 79% 29.93 in 9.0 mi NW 5.8 mph - N/A   Overcast
11:03 AM 37.0 °F 31.6 °F 32.0 °F 82% 29.92 in 9.0 mi WNW 6.9 mph - N/A   Overcast
11:53 AM 37.9 °F - 32.0 °F 79% 29.90 in 10.0 mi Calm Calm - N/A   Overcast
12:21 PM 39.0 °F 34.0 °F 32.0 °F 76% 29.85 in 10.0 mi NW 6.9 mph - N/A   Mostly Cloudy
12:53 PM 37.9 °F 34.4 °F 32.0 °F 79% 29.88 in 10.0 mi WNW 4.6 mph - N/A   Overcast
1:53 PM 37.9 °F 32.7 °F 30.9 °F 76% 29.86 in 10.0 mi WNW 6.9 mph - N/A   Overcast
2:53 PM 37.0 °F 31.6 °F 30.9 °F 79% 29.86 in 10.0 mi NW 6.9 mph - N/A   Overcast
3:53 PM 37.9 °F 34.4 °F 30.9 °F 76% 29.87 in 10.0 mi NNW 4.6 mph - N/A   Overcast
4:53 PM 37.0 °F - 30.0 °F 76% 29.88 in 10.0 mi Calm Calm - N/A   Overcast
5:53 PM 36.0 °F - 30.9 °F 82% 29.90 in 10.0 mi Calm Calm - N/A   Overcast
6:53 PM 35.1 °F - 30.9 °F 85% 29.91 in 10.0 mi Calm Calm - N/A   Overcast
7:53 PM 33.1 °F - 30.9 °F 92% 29.93 in 10.0 mi Calm Calm - N/A   Overcast
8:26 PM 33.1 °F - 30.9 °F 92% 29.93 in 10.0 mi Calm Calm - N/A   Overcast
8:45 PM 33.1 °F - 30.9 °F 92% 29.93 in 9.0 mi Calm Calm - N/A   Overcast
8:53 PM 32.0 °F - 30.0 °F 92% 29.94 in 8.0 mi Calm Calm - N/A   Overcast
9:53 PM 30.9 °F - 28.0 °F 89% 29.95 in 6.0 mi Calm Calm - N/A   Mostly Cloudy
10:49 PM 28.4 °F - 26.6 °F 93% 29.95 in 2.5 mi Calm Calm - N/A   Clear
10:53 PM 28.9 °F - 27.0 °F 92% 29.96 in 3.0 mi Calm Calm - N/A   Clear
11:03 PM 28.9 °F - 27.0 °F 92% 29.94 in 2.5 mi Calm Calm - N/A   Clear
11:13 PM 28.0 °F - 26.1 °F 92% 29.94 in 5.0 mi Calm Calm - N/A   Clear
11:31 PM 28.0 °F - 25.0 °F 88% 29.94 in 5.0 mi Calm Calm - N/A   Partly Cloudy
11:45 PM 27.0 °F - 25.0 °F 92% 29.94 in 2.0 mi Calm Calm - N/A   Scattered Clouds
11:53 PM 27.0 °F - 25.0 °F 92% 29.95 in 5.0 mi Calm Calm - N/A   Partly Cloudy